| time (UTC) | temp F | wind direction | speed MPH | gust MPH | rain 1hr in | rain 24hr in | rain mn in | humidity % | barometer mb |
| 20260906223022 | 76 | 79 | 0.0 | 5.0 | 0.00 | 0.32 | 0.09 | 56 | 1009.1 |
| 20260906221527 | 77 | 260 | 1.0 | 6.0 | 0.00 | 0.32 | 0.09 | 55 | 1009.0 |
| 20260906220018 | 78 | 37 | 0.0 | 7.0 | 0.00 | 0.32 | 0.09 | 53 | 1009.0 |
| 20260906214521 | 78 | 355 | 0.0 | 6.0 | 0.00 | 0.32 | 0.09 | 52 | 1009.1 |
| 20260906213017 | 79 | 354 | 0.0 | 8.0 | 0.00 | 0.32 | 0.09 | 48 | 1009.0 |
| 20260906211527 | 81 | 278 | 0.0 | 6.0 | 0.00 | 0.32 | 0.09 | 47 | 1008.9 |
| 20260906210119 | 82 | 10 | 0.0 | 4.0 | 0.00 | 0.32 | 0.09 | 49 | 1008.8 |
| 20260906204558 | 82 | 351 | 2.0 | 7.0 | 0.00 | 0.32 | 0.09 | 46 | 1008.8 |
| 20260906203058 | 82 | 160 | 0.0 | 9.0 | 0.00 | 0.32 | 0.09 | 48 | 1008.8 |
| 20260906201539 | 83 | 318 | 0.0 | 5.0 | 0.00 | 0.32 | 0.09 | 46 | 1008.9 |
| 20260906200047 | 83 | 128 | 1.0 | 7.0 | 0.00 | 0.32 | 0.09 | 46 | 1009.0 |
| 20260906194520 | 83 | 113 | 1.0 | 6.0 | 0.00 | 0.32 | 0.09 | 46 | 1008.9 |
| 20260906193020 | 82 | 117 | 1.0 | 6.0 | 0.00 | 0.32 | 0.09 | 46 | 1009.0 |
| 20260906191607 | 83 | 278 | 0.0 | 6.0 | 0.00 | 0.32 | 0.09 | 46 | 1009.1 |
| 20260906184539 | 82 | 97 | 1.0 | 6.0 | 0.00 | 0.32 | 0.09 | 48 | 1009.3 |
| 20260906183046 | 83 | 347 | 1.0 | 7.0 | 0.00 | 0.32 | 0.09 | 50 | 1009.3 |
| 20260906181527 | 82 | 83 | 0.0 | 7.0 | 0.00 | 0.32 | 0.09 | 48 | 1009.3 |
| 20260906180035 | 82 | 23 | 1.0 | 7.0 | 0.00 | 0.32 | 0.09 | 51 | 1009.4 |
| 20260906174501 | 81 | 139 | 1.0 | 7.0 | 0.00 | 0.32 | 0.09 | 53 | 1009.4 |
| 20260906173006 | 81 | 298 | 1.0 | 6.0 | 0.00 | 0.32 | 0.09 | 54 | 1009.7 |
| 20260906171644 | 80 | 82 | 3.0 | 7.0 | 0.00 | 0.32 | 0.09 | 55 | 1009.7 |
| 20260906170050 | 83 | 68 | 0.0 | 4.0 | 0.00 | 0.32 | 0.09 | 54 | 1010.0 |
| 20260906164536 | 81 | 262 | 1.0 | 7.0 | 0.00 | 0.32 | 0.09 | 54 | 1010.1 |
| 20260906163031 | 81 | 295 | 1.0 | 5.0 | 0.00 | 0.32 | 0.09 | 54 | 1010.1 |
| 20260906161604 | 80 | 329 | 1.0 | 5.0 | 0.00 | 0.32 | 0.09 | 57 | 1010.1 |
| 20260906160100 | 80 | 287 | 2.0 | 8.0 | 0.00 | 0.32 | 0.09 | 58 | 1010.3 |
| 20260906154539 | 79 | 44 | 1.0 | 5.0 | 0.00 | 0.32 | 0.09 | 64 | 1010.2 |
| 20260906153044 | 78 | 346 | 1.0 | 6.0 | 0.00 | 0.32 | 0.09 | 68 | 1010.1 |
| 20260906151520 | 77 | 84 | 2.0 | 6.0 | 0.00 | 0.32 | 0.09 | 66 | 1010.0 |
| 20260906150040 | 79 | 20 | 0.0 | 2.0 | 0.00 | 0.32 | 0.09 | 66 | 1009.9 |
| 20260906144616 | 77 | 284 | 0.0 | 7.0 | 0.00 | 0.32 | 0.09 | 69 | 1010.1 |
| 20260906143055 | 75 | 287 | 1.0 | 5.0 | 0.00 | 0.32 | 0.09 | 70 | 1010.1 |
| 20260906141542 | 75 | 70 | 1.0 | 5.0 | 0.00 | 0.32 | 0.09 | 71 | 1010.0 |
| 20260906140034 | 74 | 349 | 1.0 | 4.0 | 0.00 | 0.32 | 0.09 | 72 | 1009.9 |
| 20260906134513 | 72 | 115 | 2.0 | 7.0 | 0.00 | 0.32 | 0.09 | 75 | 1009.9 |
| 20260906133011 | 72 | 248 | 1.0 | 8.0 | 0.00 | 0.32 | 0.09 | 77 | 1009.6 |
| 20260906131552 | 70 | 253 | 1.0 | 5.0 | 0.00 | 0.32 | 0.09 | 79 | 1009.6 |
| 20260906130053 | 69 | 267 | 0.0 | 3.0 | 0.00 | 0.32 | 0.09 | 83 | 1009.6 |
| 20260906124531 | 68 | 86 | 0.0 | 5.0 | 0.00 | 0.32 | 0.09 | 86 | 1009.3 |
| 20260906123027 | 66 | 30 | 0.0 | 4.0 | 0.00 | 0.32 | 0.09 | 87 | 1009.2 |
| 20260906121511 | 64 | 27 | 0.0 | 2.0 | 0.00 | 0.32 | 0.09 | 87 | 1008.9 |
| 20260906120006 | 64 | 132 | 0.0 | 1.0 | 0.00 | 0.32 | 0.09 | 87 | 1008.7 |
| 20260906114549 | 0 | 0.0 | 0.0 | 0.00 | 0.32 | 0.09 | 1008.5 | ||
| 20260906113041 | 0 | 0.0 | 0.0 | 0.00 | 0.32 | 0.09 | 1008.3 | ||
| 20260906111520 | 0 | 0.0 | 0.0 | 0.00 | 0.32 | 0.09 | 1008.3 | ||
| 20260906110020 | 0 | 0.0 | 0.0 | 0.00 | 0.32 | 0.09 | 1008.0 | ||
| 20260906104613 | 0 | 0.0 | 0.0 | 0.00 | 0.32 | 0.09 | 1007.9 | ||
| 20260906103049 | 0 | 0.0 | 0.0 | 0.00 | 0.32 | 0.09 | 1007.8 | ||
| 20260906101527 | 0 | 0.0 | 0.0 | 0.00 | 0.32 | 0.09 | 1007.7 | ||
| 20260906100024 | 0 | 0.0 | 0.0 | 0.00 | 0.32 | 0.09 | 1007.7 | ||
| 20260906094508 | 0 | 0.0 | 0.0 | 0.00 | 0.32 | 0.09 | 1007.5 | ||
| 20260906093107 | 0 | 0.0 | 0.0 | 0.00 | 0.32 | 0.09 | 1007.3 | ||
| 20260906091542 | 0 | 0.0 | 0.0 | 0.00 | 0.32 | 0.09 | 1007.3 | ||
| 20260906090032 | 0 | 0.0 | 0.0 | 0.00 | 0.32 | 0.09 | 1007.2 | ||
| 20260906084513 | 0 | 0.0 | 0.0 | 0.00 | 0.32 | 0.09 | 1007.1 | ||
| 20260906083006 | 0 | 0.0 | 0.0 | 0.00 | 0.32 | 0.09 | 1006.9 | ||
| 20260906081553 | 69 | 139 | 0.0 | 3.0 | 0.01 | 0.32 | 0.09 | 87 | 1007.0 |
| 20260906080051 | 69 | 142 | 0.0 | 1.0 | 0.01 | 0.32 | 0.09 | 88 | 1006.8 |
| 20260906074531 | 69 | 148 | 0.0 | 1.0 | 0.01 | 0.32 | 0.09 | 88 | 1006.8 |
| 20260906073027 | 69 | 138 | 0.0 | 1.0 | 0.01 | 0.32 | 0.09 | 88 | 1006.8 |
| 20260906071510 | 68 | 63 | 0.0 | 0.0 | 0.00 | 0.31 | 0.08 | 88 | 1006.9 |
| 20260906070009 | 68 | 68 | 0.0 | 0.0 | 0.00 | 0.31 | 0.08 | 88 | 1007.0 |
| 20260906064559 | 68 | 68 | 0.0 | 0.0 | 0.00 | 0.31 | 0.08 | 88 | 1007.0 |
| 20260906063058 | 68 | 68 | 0.0 | 0.0 | 0.00 | 0.31 | 0.08 | 88 | 1007.1 |
| 20260906061557 | 68 | 39 | 0.0 | 0.0 | 0.00 | 0.31 | 0.08 | 88 | 1007.3 |
| 20260906060057 | 67 | 39 | 0.0 | 0.0 | 0.00 | 0.31 | 0.08 | 88 | 1007.2 |
| 20260906054556 | 68 | 38 | 0.0 | 0.0 | 0.00 | 0.31 | 0.08 | 88 | 1007.2 |
| 20260906053055 | 68 | 39 | 0.0 | 0.0 | 0.00 | 0.31 | 0.08 | 88 | 1007.2 |
| 20260906051555 | 68 | 39 | 0.0 | 0.0 | 0.00 | 0.31 | 0.08 | 88 | 1007.2 |
| 20260906050112 | 68 | 39 | 0.0 | 0.0 | 0.00 | 0.31 | 0.08 | 88 | 1007.1 |
| 20260906044535 | 68 | 38 | 0.0 | 0.0 | 0.00 | 0.31 | 0.08 | 88 | 1006.8 |
| 20260906043033 | 68 | 39 | 0.0 | 0.0 | 0.00 | 0.31 | 0.08 | 87 | 1006.6 |
| 20260906041513 | 68 | 38 | 0.0 | 0.0 | 0.00 | 0.31 | 0.08 | 87 | 1006.5 |
| 20260906040011 | 68 | 38 | 0.0 | 0.0 | 0.00 | 0.31 | 0.08 | 87 | 1006.5 |
| 20260906034603 | 69 | 39 | 0.0 | 0.0 | 0.00 | 0.31 | 0.08 | 87 | 1006.4 |
| 20260906033052 | 69 | 38 | 0.0 | 0.0 | 0.00 | 0.31 | 0.08 | 87 | 1006.5 |
| 20260906031545 | 69 | 39 | 0.0 | 0.0 | 0.00 | 0.31 | 0.08 | 87 | 1006.4 |
| 20260906030033 | 69 | 39 | 0.0 | 0.0 | 0.00 | 0.31 | 0.08 | 87 | 1006.5 |
| 20260906024513 | 70 | 39 | 0.0 | 0.0 | 0.00 | 0.31 | 0.08 | 87 | 1006.6 |
| 20260906023017 | 70 | 39 | 0.0 | 0.0 | 0.00 | 0.31 | 0.08 | 87 | 1006.6 |
| 20260906021603 | 71 | 39 | 0.0 | 0.0 | 0.00 | 0.31 | 0.08 | 87 | 1006.7 |
| 20260906020057 | 71 | 39 | 0.0 | 0.0 | 0.00 | 0.31 | 0.08 | 87 | 1006.6 |
| 20260906014535 | 71 | 37 | 0.0 | 0.0 | 0.26 | 0.31 | 0.08 | 87 | 1006.5 |
| 20260906013031 | 71 | 35 | 0.0 | 0.0 | 0.31 | 0.31 | 0.08 | 88 | 1006.7 |
| 20260906011514 | 72 | 90 | 0.0 | 1.0 | 0.31 | 0.31 | 0.08 | 88 | 1006.2 |
| 20260906010008 | 73 | 76 | 1.0 | 7.0 | 0.31 | 0.31 | 0.08 | 87 | 1006.4 |
| 20260906004550 | 75 | 61 | 1.0 | 3.0 | 0.05 | 0.05 | 0.05 | 86 | 1006.5 |
| 20260906003047 | 75 | 314 | 0.0 | 6.0 | 0.00 | 0.00 | 0.00 | 86 | 1006.1 |
| 20260906001532 | 75 | 101 | 0.0 | 0.0 | 0.00 | 0.00 | 0.00 | 86 | 1005.7 |
| 20260906000028 | 76 | 101 | 0.0 | 0.0 | 0.00 | 0.00 | 0.00 | 86 | 1005.9 |
| 20260905234510 | 77 | 101 | 0.0 | 0.0 | 0.00 | 0.00 | 0.00 | 85 | 1005.5 |
| 20260905233011 | 77 | 101 | 0.0 | 1.0 | 0.00 | 0.00 | 0.00 | 84 | 1005.6 |
| 20260905231609 | 78 | 103 | 0.0 | 2.0 | 0.00 | 0.00 | 0.00 | 84 | 1005.5 |
| 20260905230054 | 80 | 136 | 0.0 | 3.0 | 0.00 | 0.00 | 0.00 | 83 | 1005.7 |
| 20260905224558 | 82 | 43 | 0.0 | 1.0 | 0.00 | 0.00 | 0.00 | 80 | 1005.8 |